DW8078 Weather Reports


Display with metric or nautical units.
time (UTC)temp
F
wind
direction
speed
MPH
gust
MPH
rain 1hr
in
rain 24hr
in
rain mn
in
humidity
%
barometer
mb
20170323001724 37 221 0.0 0.0 0.00 0.00 0.00 78 1023.9
20170323000241 38 221 0.0 0.0 0.00 0.00 0.00 76 1023.7
20170322234715 39 221 0.0 0.0 0.00 0.00 0.00 73 1023.5
20170322233214 39 221 0.0 0.0 0.00 0.00 0.00 74 1023.6
20170322231711 38 221 0.0 0.0 0.00 0.00 0.00 77 1023.6
20170322230213 38 221 0.0 0.0 0.00 0.00 0.00 77 1023.8
20170322224706 39 221 0.0 0.0 0.00 0.00 0.00 76 1023.7
20170322223205 39 221 0.0 0.0 0.00 0.00 0.00 75 1023.6
20170322221709 40 221 0.0 0.0 0.00 0.00 0.00 74 1023.4
20170322220204 40 221 0.0 0.0 0.00 0.00 0.00 73 1023.3
20170322214711 40 221 0.0 0.0 0.00 0.00 0.00 74 1023.2
20170322213200 40 221 0.0 0.0 0.00 0.00 0.00 74 1023.1
20170322211705 41 221 0.0 0.0 0.00 0.00 0.00 72 1023.0
20170322210158 41 221 0.0 0.0 0.00 0.00 0.00 70 1022.8
20170322204656 41 221 0.0 0.0 0.00 0.00 0.00 71 1022.5
20170322203153 41 311 0.0 0.0 0.00 0.00 0.00 71 1022.5
20170322201654 41 311 0.0 0.0 0.00 0.00 0.00 71 1022.2
20170322200153 42 311 0.0 0.0 0.00 0.00 0.00 70 1022.0
20170322194701 42 311 0.0 0.0 0.00 0.00 0.00 70 1022.0
20170322193220 42 311 0.0 0.0 0.00 0.00 0.00 68 1021.9
20170322191648 42 311 0.0 0.0 0.00 0.00 0.00 67 1021.8
20170322190158 42 311 0.0 0.0 0.00 0.00 0.00 65 1021.7
20170322184652 42 311 0.0 0.0 0.00 0.00 0.00 65 1021.5
20170322183143 43 311 0.0 0.0 0.00 0.00 0.00 61 1021.2
20170322181644 43 311 0.0 0.0 0.00 0.00 0.00 59 1021.1
20170322180143 44 311 0.0 0.0 0.00 0.00 0.00 56 1021.0
20170322174642 45 311 0.0 0.0 0.00 0.00 0.00 52 1020.7
20170322173138 45 311 0.0 0.0 0.00 0.00 0.00 50 1020.7
20170322171640 46 311 0.0 0.0 0.00 0.00 0.00 49 1020.7
20170322170140 47 311 0.0 0.0 0.00 0.00 0.00 48 1020.5
20170322164637 48 311 0.0 0.0 0.00 0.00 0.00 49 1020.5
20170322163135 49 311 0.0 1.0 0.00 0.00 0.00 47 1020.2
20170322161636 50 311 0.0 0.0 0.00 0.00 0.00 44 1020.0
20170322160133 49 312 0.0 0.0 0.00 0.00 0.00 45 1020.1
20170322154635 48 311 0.0 0.0 0.00 0.00 0.00 47 1020.1
20170322153128 48 13 0.0 1.0 0.00 0.00 0.00 46 1019.8
20170322151641 49 319 0.0 2.0 0.00 0.00 0.00 46 1019.7
20170322150125 49 340 5.0 9.0 0.00 0.00 0.00 44 1019.6
20170322144622 49 296 6.0 10.0 0.00 0.00 0.00 44 1019.5
20170322143125 49 327 3.0 9.0 0.00 0.00 0.00 43 1019.5
20170322141620 50 44 0.0 4.0 0.00 0.00 0.00 43 1019.4
20170322140122 49 63 0.0 9.0 0.00 0.00 0.00 43 1019.4
20170322134618 50 360 5.0 10.0 0.00 0.00 0.00 43 1019.3
20170322133118 49 5 0.0 9.0 0.00 0.00 0.00 50 1019.2
20170322131614 49 341 1.0 9.0 0.00 0.00 0.00 48 1019.1
20170322130111 49 360 3.0 10.0 0.00 0.00 0.00 49 1019.3
20170322124606 47 309 7.0 12.0 0.00 0.00 0.00 48 1019.2
20170322123112 47 317 6.0 10.0 0.00 0.00 0.00 48 1019.0
20170322121605 47 26 3.0 8.0 0.00 0.00 0.00 49 1019.0
20170322120105 47 337 5.0 10.0 0.00 0.00 0.00 50 1018.9
20170322114603 47 340 3.0 9.0 0.00 0.00 0.00 48 1018.8
20170322113100 46 298 8.0 11.0 0.00 0.00 0.00 48 1018.8
20170322111600 46 19 3.0 8.0 0.00 0.00 0.00 50 1018.8
20170322110100 46 328 6.0 10.0 0.00 0.00 0.00 51 1018.7
20170322104603 46 331 1.0 13.0 0.00 0.00 0.00 54 1018.5
20170322103103 45 304 0.0 3.0 0.00 0.00 0.00 55 1018.4
20170322101554 45 355 2.0 7.0 0.00 0.00 0.00 58 1018.4
20170322100050 45 340 3.0 10.0 0.00 0.00 0.00 57 1018.3
20170322094551 45 360 1.0 6.0 0.00 0.00 0.00 57 1018.1
20170322093045 45 44 0.0 4.0 0.00 0.00 0.00 58 1018.1
20170322091544 44 355 0.0 7.0 0.00 0.00 0.00 59 1018.0
20170322090043 43 24 0.0 7.0 0.00 0.00 0.00 63 1017.9
20170322084547 43 323 3.0 9.0 0.00 0.00 0.00 62 1017.8
20170322083050 42 330 5.0 10.0 0.00 0.00 0.00 65 1017.7
20170322081537 41 325 3.0 13.0 0.00 0.00 0.00 69 1017.4
20170322080031 40 314 6.0 9.0 0.00 0.00 0.00 69 1017.1
20170322074537 40 330 7.0 9.0 0.00 0.00 0.00 71 1017.0
20170322073029 39 307 6.0 10.0 0.00 0.00 0.00 74 1016.9
20170322071537 39 308 6.0 10.0 0.00 0.00 0.00 76 1016.8
20170322070026 39 335 6.0 9.0 0.00 0.00 0.00 77 1016.9
20170322064524 39 305 1.0 8.0 0.00 0.00 0.00 78 1016.6
20170322063018 38 305 2.0 5.0 0.00 0.00 0.00 79 1016.5
20170322061527 38 305 1.0 6.0 0.00 0.00 0.00 79 1016.2
20170322060017 38 302 3.0 6.0 0.00 0.00 0.00 79 1016.2
20170322054515 38 294 1.0 5.0 0.00 0.00 0.00 79 1015.8
20170322053004 38 292 0.0 4.0 0.00 0.00 0.00 79 1015.8
20170322051456 38 306 0.0 1.0 0.00 0.00 0.00 78 1015.6
20170322045953 38 304 3.0 6.0 0.00 0.00 0.00 77 1015.5
20170322044450 38 311 4.0 6.0 0.00 0.00 0.00 76 1015.3
20170322042949 39 323 0.0 5.0 0.00 0.00 0.00 75 1015.1
20170322041507 39 331 3.0 6.0 0.00 0.00 0.00 75 1014.9
20170322035949 39 331 1.0 6.0 0.00 0.01 0.00 75 1014.8
20170322034445 39 343 4.0 7.0 0.00 0.01 0.00 74 1014.7
20170322032944 39 335 3.0 10.0 0.00 0.01 0.00 73 1014.5
20170322031437 40 355 3.0 9.0 0.00 0.01 0.00 73 1014.3
20170322025933 40 351 4.0 10.0 0.00 0.01 0.00 74 1014.2
20170322024431 40 338 6.0 9.0 0.00 0.01 0.00 75 1013.9
20170322022942 40 360 2.0 10.0 0.00 0.01 0.00 75 1013.9
20170322021430 40 344 5.0 10.0 0.00 0.01 0.00 75 1013.8
20170322015929 41 340 6.0 10.0 0.00 0.03 0.00 75 1013.5
20170322014428 41 5 5.0 11.0 0.00 0.03 0.00 74 1013.3
20170322012928 41 340 7.0 11.0 0.00 0.03 0.00 74 1013.2
20170322011422 42 331 7.0 13.0 0.00 0.03 0.00 74 1013.2
20170322005918 42 336 7.0 12.0 0.00 0.05 0.00 74 1012.9
20170322004416 42 340 5.0 8.0 0.00 0.05 0.00 75 1012.6
20170322002911 42 344 3.0 8.0 0.00 0.05 0.00 75 1012.3